Time,TemperatureF,DewpointF,PressureIn,WindDirection,WindDirectionDegrees,WindSpeedMPH,WindSpeedGustMPH,Humidity,HourlyPrecipIn,Conditions,Clouds,dailyrainin,SoftwareType,DateUTC
2013-03-23 00:03:00,33.1,20.7,30.05,SSE,152,0.0,0.0,60,0.00,,,0.00,Wunderground v.1.15,2013-03-23 05:03:00,
2013-03-23 00:13:00,33.1,20.7,30.06,SSE,153,0.0,0.0,60,0.00,,,0.00,Wunderground v.1.15,2013-03-23 05:13:00,
2013-03-23 00:23:00,33.0,20.6,30.07,SSE,152,0.0,0.0,60,0.00,,,0.00,Wunderground v.1.15,2013-03-23 05:23:00,
2013-03-23 00:33:00,33.0,21.0,30.07,SSE,153,0.0,0.0,61,0.00,,,0.00,Wunderground v.1.15,2013-03-23 05:33:00,
2013-03-23 00:43:00,32.9,20.9,30.08,SSE,153,0.0,0.0,61,0.00,,,0.00,Wunderground v.1.15,2013-03-23 05:43:00,
2013-03-23 00:53:00,32.9,20.9,30.09,SSE,153,0.0,0.0,61,0.00,,,0.00,Wunderground v.1.15,2013-03-23 05:53:00,
2013-03-23 01:03:00,32.8,20.8,30.08,SSE,153,0.0,0.0,61,0.00,,,0.00,Wunderground v.1.15,2013-03-23 06:03:00,
2013-03-23 01:13:00,32.8,20.8,30.08,SSE,153,0.0,0.0,61,0.00,,,0.00,Wunderground v.1.15,2013-03-23 06:13:00,
2013-03-23 01:23:00,32.7,21.1,30.08,SSE,152,0.0,0.0,62,0.00,,,0.00,Wunderground v.1.15,2013-03-23 06:23:00,
2013-03-23 01:33:00,32.7,21.5,30.08,North,360,0.0,1.0,63,0.00,,,0.00,Wunderground v.1.15,2013-03-23 06:33:00,
2013-03-23 01:43:00,32.7,21.9,30.08,North,9,1.0,1.0,64,0.00,,,0.00,Wunderground v.1.15,2013-03-23 06:43:00,
2013-03-23 01:53:00,32.7,22.6,30.07,NNE,32,1.0,1.0,66,0.00,,,0.00,Wunderground v.1.15,2013-03-23 06:53:00,
2013-03-23 02:03:00,32.6,22.8,30.07,NE,52,1.0,1.0,67,0.00,,,0.00,Wunderground v.1.15,2013-03-23 07:03:00,
2013-03-23 02:13:00,32.4,23.0,30.08,NE,52,0.0,0.0,68,0.00,,,0.00,Wunderground v.1.15,2013-03-23 07:13:00,
2013-03-23 02:23:00,32.3,23.3,30.09,NE,52,0.0,0.0,69,0.00,,,0.00,Wunderground v.1.15,2013-03-23 07:23:00,
2013-03-23 02:33:00,32.1,23.4,30.10,NE,52,0.0,0.0,70,0.00,,,0.00,Wunderground v.1.15,2013-03-23 07:33:00,
2013-03-23 02:43:00,32.1,23.8,30.10,NE,44,0.0,1.0,71,0.00,,,0.00,Wunderground v.1.15,2013-03-23 07:43:00,
2013-03-23 02:53:00,32.0,25.3,30.10,NE,44,1.0,2.0,76,0.00,,,0.00,Wunderground v.1.15,2013-03-23 07:53:00,
2013-03-23 03:03:00,31.9,23.9,30.10,NE,44,0.0,0.0,72,0.00,,,0.00,Wunderground v.1.15,2013-03-23 08:03:00,
2013-03-23 03:13:00,31.9,23.9,30.08,NE,44,0.0,0.0,72,0.00,,,0.00,Wunderground v.1.15,2013-03-23 08:13:00,
2013-03-23 03:23:00,31.8,23.8,30.08,East,98,0.0,0.0,72,0.00,,,0.00,Wunderground v.1.15,2013-03-23 08:23:00,
2013-03-23 03:33:00,31.7,23.7,30.09,East,98,0.0,0.0,72,0.00,,,0.00,Wunderground v.1.15,2013-03-23 08:33:00,
2013-03-23 03:43:00,31.6,23.6,30.08,East,98,0.0,0.0,72,0.00,,,0.00,Wunderground v.1.15,2013-03-23 08:43:00,
2013-03-23 03:53:00,31.6,23.6,30.07,East,96,0.0,1.0,72,0.00,,,0.00,Wunderground v.1.15,2013-03-23 08:53:00,
2013-03-23 04:03:00,31.5,23.8,30.07,East,96,0.0,0.0,73,0.00,,,0.00,Wunderground v.1.15,2013-03-23 09:03:00,
2013-03-23 04:13:00,31.4,23.7,30.06,East,98,0.0,0.0,73,0.00,,,0.00,Wunderground v.1.15,2013-03-23 09:13:00,
2013-03-23 04:23:00,31.3,24.0,30.06,SSE,167,0.0,0.0,74,0.00,,,0.00,Wunderground v.1.15,2013-03-23 09:23:00,
2013-03-23 04:33:00,31.2,23.9,30.07,SSE,167,0.0,0.0,74,0.00,,,0.00,Wunderground v.1.15,2013-03-23 09:33:00,
2013-03-23 04:43:00,31.2,24.2,30.08,SSE,167,0.0,0.0,75,0.00,,,0.00,Wunderground v.1.15,2013-03-23 09:43:00,
2013-03-23 04:53:00,31.1,24.1,30.08,East,81,0.0,1.0,75,0.00,,,0.00,Wunderground v.1.15,2013-03-23 09:53:00,
2013-03-23 05:03:00,31.1,24.1,30.08,East,80,0.0,0.0,75,0.00,,,0.00,Wunderground v.1.15,2013-03-23 10:03:00,
2013-03-23 05:13:00,31.1,24.4,30.08,ESE,102,0.0,0.0,76,0.00,,,0.00,Wunderground v.1.15,2013-03-23 10:13:00,
2013-03-23 05:23:00,31.1,24.4,30.09,NE,41,0.0,0.0,76,0.00,,,0.00,Wunderground v.1.15,2013-03-23 10:23:00,
2013-03-23 05:33:00,31.1,24.4,30.10,NE,47,0.0,0.0,76,0.00,,,0.00,Wunderground v.1.15,2013-03-23 10:33:00,
2013-03-23 05:43:00,31.1,24.4,30.10,NE,46,0.0,0.0,76,0.00,,,0.00,Wunderground v.1.15,2013-03-23 10:43:00,
2013-03-23 05:53:00,31.1,24.7,30.10,NE,46,1.0,1.0,77,0.00,,,0.00,Wunderground v.1.15,2013-03-23 10:53:00,
2013-03-23 06:03:00,31.1,24.7,30.10,NE,45,0.0,0.0,77,0.00,,,0.00,Wunderground v.1.15,2013-03-23 11:03:00,
2013-03-23 06:13:00,31.2,24.8,30.10,NE,45,0.0,0.0,77,0.00,,,0.00,Wunderground v.1.15,2013-03-23 11:13:00,
2013-03-23 06:23:00,31.1,24.7,30.11,NE,46,0.0,0.0,77,0.00,,,0.00,Wunderground v.1.15,2013-03-23 11:23:00,
2013-03-23 06:33:00,31.1,24.7,30.11,NE,46,0.0,0.0,77,0.00,,,0.00,Wunderground v.1.15,2013-03-23 11:33:00,
2013-03-23 06:43:00,31.1,24.4,30.11,NE,46,0.0,0.0,76,0.00,,,0.00,Wunderground v.1.15,2013-03-23 11:43:00,
2013-03-23 06:53:00,31.1,24.7,30.11,NE,46,0.0,0.0,77,0.00,,,0.00,Wunderground v.1.15,2013-03-23 11:53:00,
2013-03-23 07:03:00,31.0,24.6,30.11,NE,48,1.0,1.0,77,0.00,,,0.00,Wunderground v.1.15,2013-03-23 12:03:00,
2013-03-23 07:18:00,31.0,24.9,30.11,NE,46,1.0,2.0,78,0.00,,,0.00,Wunderground v.1.15,2013-03-23 12:18:00,
2013-03-23 07:23:00,31.0,24.9,30.11,NE,44,1.0,1.0,78,0.00,,,0.00,Wunderground v.1.15,2013-03-23 12:23:00,
2013-03-23 07:33:00,31.0,24.9,30.11,NNE,29,2.0,3.0,78,0.00,,,0.00,Wunderground v.1.15,2013-03-23 12:33:00,
2013-03-23 07:43:00,30.9,24.8,30.11,NNE,24,2.0,2.0,78,0.00,,,0.00,Wunderground v.1.15,2013-03-23 12:43:00,
2013-03-23 07:53:00,30.9,24.8,30.11,NNE,21,1.0,1.0,78,0.00,,,0.00,Wunderground v.1.15,2013-03-23 12:53:00,
2013-03-23 08:03:00,30.8,24.7,30.11,ENE,64,1.0,1.0,78,0.00,,,0.00,Wunderground v.1.15,2013-03-23 13:03:00,
2013-03-23 08:13:00,30.8,24.7,30.12,ENE,63,0.0,0.0,78,0.00,,,0.00,Wunderground v.1.15,2013-03-23 13:13:00,
2013-03-23 08:23:00,30.9,24.8,30.11,NE,46,0.0,1.0,78,0.00,,,0.00,Wunderground v.1.15,2013-03-23 13:23:00,
2013-03-23 08:33:00,31.1,25.0,30.11,NE,47,1.0,1.0,78,0.00,,,0.00,Wunderground v.1.15,2013-03-23 13:33:00,
2013-03-23 08:43:00,31.2,25.1,30.12,NE,48,0.0,4.0,78,0.00,,,0.00,Wunderground v.1.15,2013-03-23 13:43:00,
2013-03-23 08:53:00,31.3,24.9,30.11,NNE,25,1.0,1.0,77,0.00,,,0.00,Wunderground v.1.15,2013-03-23 13:53:00,
2013-03-23 09:03:00,31.4,25.0,30.11,ENE,67,1.0,1.0,77,0.00,,,0.00,Wunderground v.1.15,2013-03-23 14:03:00,
2013-03-23 09:13:00,31.6,25.2,30.11,NE,53,2.0,4.0,77,0.00,,,0.00,Wunderground v.1.15,2013-03-23 14:13:00,
2013-03-23 09:18:00,31.7,25.3,30.11,NNE,14,2.0,4.0,77,0.00,,,0.00,Wunderground v.1.15,2013-03-23 14:18:00,
2013-03-23 09:28:00,32.1,25.4,30.12,East,91,2.0,3.0,76,0.00,,,0.00,Wunderground v.1.15,2013-03-23 14:28:00,
2013-03-23 09:33:00,32.3,25.6,30.13,East,85,1.0,1.0,76,0.00,,,0.00,Wunderground v.1.15,2013-03-23 14:33:00,
2013-03-23 09:43:00,32.8,26.1,30.14,East,84,1.0,1.0,76,0.00,,,0.00,Wunderground v.1.15,2013-03-23 14:43:00,
2013-03-23 09:53:00,33.2,26.1,30.14,East,84,1.0,1.0,75,0.00,,,0.00,Wunderground v.1.15,2013-03-23 14:53:00,
2013-03-23 10:03:00,33.5,26.1,30.14,East,84,1.0,1.0,74,0.00,,,0.00,Wunderground v.1.15,2013-03-23 15:03:00,
2013-03-23 10:13:00,33.9,26.2,30.14,East,84,0.0,0.0,73,0.00,,,0.00,Wunderground v.1.15,2013-03-23 15:13:00,
2013-03-23 10:23:00,34.3,26.2,30.14,East,79,1.0,1.0,72,0.00,,,0.00,Wunderground v.1.15,2013-03-23 15:23:00,
2013-03-23 10:33:00,34.4,26.0,30.14,NNE,22,1.0,2.0,71,0.00,,,0.00,Wunderground v.1.15,2013-03-23 15:33:00,
2013-03-23 10:43:00,34.8,26.0,30.14,NNE,22,2.0,2.0,70,0.00,,,0.00,Wunderground v.1.15,2013-03-23 15:43:00,
2013-03-23 10:53:00,35.1,25.9,30.14,NNE,32,1.0,1.0,69,0.00,,,0.00,Wunderground v.1.15,2013-03-23 15:53:00,
2013-03-23 11:03:00,35.3,25.8,30.15,NE,47,1.0,1.0,68,0.00,,,0.00,Wunderground v.1.15,2013-03-23 16:03:00,
2013-03-23 11:13:00,35.4,25.2,30.14,NNE,14,2.0,2.0,66,0.00,,,0.00,Wunderground v.1.15,2013-03-23 16:13:00,
2013-03-23 11:23:00,35.8,25.9,30.13,ENE,76,2.0,2.0,67,0.00,,,0.00,Wunderground v.1.15,2013-03-23 16:23:00,
2013-03-23 11:33:00,36.9,27.0,30.14,NE,38,1.0,1.0,67,0.00,,,0.00,Wunderground v.1.15,2013-03-23 16:33:00,
2013-03-23 11:43:00,37.8,25.9,30.14,NNE,21,1.0,5.0,62,0.00,,,0.00,Wunderground v.1.15,2013-03-23 16:43:00,
2013-03-23 11:53:00,38.0,25.3,30.14,NE,53,4.0,6.0,60,0.00,,,0.00,Wunderground v.1.15,2013-03-23 16:53:00,
2013-03-23 12:03:00,38.3,25.6,30.13,NNE,21,3.0,3.0,60,0.00,,,0.00,Wunderground v.1.15,2013-03-23 17:03:00,
2013-03-23 12:13:00,38.6,25.9,30.13,NNE,13,2.0,4.0,60,0.00,,,0.00,Wunderground v.1.15,2013-03-23 17:13:00,
2013-03-23 12:23:00,38.8,25.7,30.12,NNE,15,3.0,5.0,59,0.00,,,0.00,Wunderground v.1.15,2013-03-23 17:23:00,
2013-03-23 12:33:00,38.9,25.8,30.12,North,11,2.0,5.0,59,0.00,,,0.00,Wunderground v.1.15,2013-03-23 17:33:00,
2013-03-23 12:43:00,39.2,26.1,30.11,NNE,31,2.0,2.0,59,0.00,,,0.00,Wunderground v.1.15,2013-03-23 17:43:00,
2013-03-23 12:53:00,39.1,25.6,30.11,NNE,15,1.0,2.0,58,0.00,,,0.00,Wunderground v.1.15,2013-03-23 17:53:00,
2013-03-23 13:03:00,38.7,25.2,30.10,NNE,24,2.0,8.0,58,0.00,,,0.00,Wunderground v.1.15,2013-03-23 18:03:00,
2013-03-23 13:13:00,38.4,24.5,30.10,NNE,22,2.0,6.0,57,0.00,,,0.00,Wunderground v.1.15,2013-03-23 18:13:00,
2013-03-23 13:23:00,38.2,24.3,30.09,NNW,336,4.0,4.0,57,0.00,,,0.00,Wunderground v.1.15,2013-03-23 18:23:00,
2013-03-23 13:33:00,38.4,24.1,30.09,NNE,12,2.0,2.0,56,0.00,,,0.00,Wunderground v.1.15,2013-03-23 18:33:00,
2013-03-23 13:43:00,39.3,25.3,30.09,ENE,65,1.0,1.0,57,0.00,,,0.00,Wunderground v.1.15,2013-03-23 18:43:00,
2013-03-23 13:53:00,39.5,24.7,30.08,NNE,33,4.0,6.0,55,0.00,,,0.00,Wunderground v.1.15,2013-03-23 18:53:00,
2013-03-23 14:03:00,39.5,25.1,30.08,NE,37,3.0,3.0,56,0.00,,,0.00,Wunderground v.1.15,2013-03-23 19:03:00,
2013-03-23 14:13:00,39.7,25.7,30.07,NE,40,3.0,6.0,57,0.00,,,0.00,Wunderground v.1.15,2013-03-23 19:13:00,
2013-03-23 14:23:00,39.7,25.7,30.07,North,5,4.0,9.0,57,0.00,,,0.00,Wunderground v.1.15,2013-03-23 19:23:00,
2013-03-23 14:33:00,39.5,26.3,30.06,NNE,24,3.0,3.0,59,0.00,,,0.00,Wunderground v.1.15,2013-03-23 19:33:00,
2013-03-23 14:43:00,39.4,27.1,30.07,NNE,21,2.0,7.0,61,0.00,,,0.00,Wunderground v.1.15,2013-03-23 19:43:00,
2013-03-23 14:53:00,38.8,26.5,30.06,South,190,3.0,3.0,61,0.00,,,0.00,Wunderground v.1.15,2013-03-23 19:53:00,
2013-03-23 15:03:00,38.2,26.7,30.06,NNE,30,1.0,4.0,63,0.00,,,0.00,Wunderground v.1.15,2013-03-23 20:03:00,
2013-03-23 15:13:00,37.7,27.0,30.07,North,11,2.0,3.0,65,0.00,,,0.00,Wunderground v.1.15,2013-03-23 20:13:00,
2013-03-23 15:23:00,37.2,27.2,30.06,North,11,2.0,7.0,67,0.00,,,0.00,Wunderground v.1.15,2013-03-23 20:23:00,
2013-03-23 15:33:00,36.7,27.1,30.06,NNE,25,1.0,1.0,68,0.00,,,0.00,Wunderground v.1.15,2013-03-23 20:33:00,
2013-03-23 15:43:00,36.1,26.9,30.06,NE,37,2.0,5.0,69,0.00,,,0.00,Wunderground v.1.15,2013-03-23 20:43:00,
2013-03-23 15:53:00,35.9,27.4,30.06,NNE,18,2.0,5.0,71,0.00,,,0.00,Wunderground v.1.15,2013-03-23 20:53:00,
2013-03-23 16:03:00,35.7,27.9,30.06,NNE,26,2.0,2.0,73,0.00,,,0.00,Wunderground v.1.15,2013-03-23 21:03:00,
2013-03-23 16:13:00,35.2,28.7,30.07,NE,38,2.0,2.0,77,0.00,,,0.00,Wunderground v.1.15,2013-03-23 21:13:00,
2013-03-23 16:23:00,34.7,28.5,30.07,NNE,26,2.0,2.0,78,0.00,,,0.00,Wunderground v.1.15,2013-03-23 21:23:00,
2013-03-23 16:33:00,34.4,28.9,30.07,NNE,13,1.0,1.0,80,0.00,,,0.01,Wunderground v.1.15,2013-03-23 21:33:00,
2013-03-23 16:43:00,34.2,29.0,30.07,NNE,15,2.0,2.0,81,0.00,,,0.01,Wunderground v.1.15,2013-03-23 21:43:00,
2013-03-23 16:53:00,33.9,29.0,30.07,NNE,26,2.0,2.0,82,0.00,,,0.01,Wunderground v.1.15,2013-03-23 21:53:00,
2013-03-23 17:03:00,33.6,29.0,30.07,NE,46,2.0,2.0,83,0.00,,,0.02,Wunderground v.1.15,2013-03-23 22:03:00,
2013-03-23 17:13:00,33.3,28.7,30.07,North,355,3.0,3.0,83,0.00,,,0.02,Wunderground v.1.15,2013-03-23 22:13:00,
2013-03-23 17:23:00,33.0,28.7,30.07,North,5,3.0,6.0,84,0.00,,,0.03,Wunderground v.1.15,2013-03-23 22:23:00,
2013-03-23 17:33:00,32.8,28.5,30.08,NNE,21,3.0,3.0,84,0.00,,,0.03,Wunderground v.1.15,2013-03-23 22:33:00,
2013-03-23 17:43:00,32.6,28.3,30.08,NE,36,3.0,3.0,84,0.00,,,0.03,Wunderground v.1.15,2013-03-23 22:43:00,
2013-03-23 17:53:00,32.6,28.6,30.07,NE,53,3.0,3.0,85,0.00,,,0.03,Wunderground v.1.15,2013-03-23 22:53:00,
2013-03-23 18:03:00,32.5,28.5,30.07,NE,39,3.0,3.0,85,0.00,,,0.03,Wunderground v.1.15,2013-03-23 23:03:00,
2013-03-23 18:13:00,32.3,28.3,30.08,NE,41,2.0,2.0,85,0.00,,,0.03,Wunderground v.1.15,2013-03-23 23:13:00,
2013-03-23 18:23:00,32.3,28.3,30.08,NNE,32,3.0,3.0,85,0.00,,,0.03,Wunderground v.1.15,2013-03-23 23:23:00,
2013-03-23 18:33:00,32.1,28.4,30.08,NNE,29,1.0,1.0,86,0.00,,,0.03,Wunderground v.1.15,2013-03-23 23:33:00,
2013-03-23 18:43:00,32.0,28.0,30.08,NE,37,3.0,3.0,85,0.00,,,0.03,Wunderground v.1.15,2013-03-23 23:43:00,
2013-03-23 18:53:00,31.8,27.8,30.09,NNE,26,3.0,3.0,85,0.00,,,0.03,Wunderground v.1.15,2013-03-23 23:53:00,
2013-03-23 19:03:00,31.6,27.9,30.09,ENE,75,2.0,2.0,86,0.00,,,0.03,Wunderground v.1.15,2013-03-24 00:03:00,
2013-03-23 19:13:00,31.4,27.7,30.09,NNE,25,2.0,4.0,86,0.00,,,0.03,Wunderground v.1.15,2013-03-24 00:13:00,
2013-03-23 19:23:00,31.3,27.6,30.09,NE,37,2.0,2.0,86,0.00,,,0.03,Wunderground v.1.15,2013-03-24 00:23:00,
2013-03-23 19:33:00,31.2,27.8,30.10,NE,38,2.0,2.0,87,0.00,,,0.03,Wunderground v.1.15,2013-03-24 00:33:00,
2013-03-23 19:43:00,31.1,27.7,30.10,NE,39,2.0,2.0,87,0.00,,,0.03,Wunderground v.1.15,2013-03-24 00:43:00,
2013-03-23 19:53:00,30.9,27.5,30.11,North,9,2.0,6.0,87,0.00,,,0.03,Wunderground v.1.15,2013-03-24 00:53:00,
2013-03-23 20:03:00,30.5,26.8,30.11,NNE,18,3.0,5.0,86,0.00,,,0.03,Wunderground v.1.15,2013-03-24 01:03:00,
2013-03-23 20:13:00,30.3,26.6,30.12,NNE,28,3.0,3.0,86,0.00,,,0.03,Wunderground v.1.15,2013-03-24 01:13:00,
2013-03-23 20:23:00,30.1,26.7,30.12,NNE,15,2.0,2.0,87,0.00,,,0.03,Wunderground v.1.15,2013-03-24 01:23:00,
2013-03-23 20:33:00,30.1,26.7,30.12,NE,47,2.0,2.0,87,0.00,,,0.03,Wunderground v.1.15,2013-03-24 01:33:00,
2013-03-23 20:43:00,29.9,26.5,30.11,NE,56,2.0,8.0,87,0.00,,,0.03,Wunderground v.1.15,2013-03-24 01:43:00,
2013-03-23 20:53:00,29.9,26.5,30.11,ENE,61,2.0,2.0,87,0.00,,,0.03,Wunderground v.1.15,2013-03-24 01:53:00,
2013-03-23 21:03:00,29.7,26.3,30.11,North,9,3.0,6.0,87,0.00,,,0.03,Wunderground v.1.15,2013-03-24 02:03:00,
2013-03-23 21:13:00,29.5,26.1,30.11,NE,36,3.0,3.0,87,0.00,,,0.03,Wunderground v.1.15,2013-03-24 02:13:00,
2013-03-23 21:23:00,29.3,25.6,30.11,NE,41,2.0,2.0,86,0.00,,,0.03,Wunderground v.1.15,2013-03-24 02:23:00,
2013-03-23 21:33:00,29.2,25.5,30.11,NE,44,2.0,4.0,86,0.00,,,0.03,Wunderground v.1.15,2013-03-24 02:33:00,
2013-03-23 21:43:00,29.1,25.4,30.10,NE,42,3.0,3.0,86,0.00,,,0.03,Wunderground v.1.15,2013-03-24 02:43:00,
2013-03-23 21:53:00,29.0,25.3,30.10,NNE,25,3.0,3.0,86,0.00,,,0.03,Wunderground v.1.15,2013-03-24 02:53:00,
2013-03-23 22:03:00,28.9,25.2,30.10,NNE,19,3.0,3.0,86,0.00,,,0.03,Wunderground v.1.15,2013-03-24 03:03:00,
2013-03-23 22:13:00,28.8,25.1,30.10,ENE,62,3.0,4.0,86,0.00,,,0.03,Wunderground v.1.15,2013-03-24 03:13:00,
2013-03-23 22:23:00,28.7,25.0,30.10,NE,34,2.0,2.0,86,0.00,,,0.03,Wunderground v.1.15,2013-03-24 03:23:00,
2013-03-23 22:33:00,28.6,24.9,30.10,NE,36,2.0,3.0,86,0.00,,,0.03,Wunderground v.1.15,2013-03-24 03:33:00,
2013-03-23 22:43:00,28.5,24.8,30.11,NNE,32,2.0,2.0,86,0.00,,,0.03,Wunderground v.1.15,2013-03-24 03:43:00,
2013-03-23 22:53:00,28.4,24.7,30.10,NE,41,2.0,2.0,86,0.00,,,0.03,Wunderground v.1.15,2013-03-24 03:53:00,
2013-03-23 23:03:00,28.4,24.7,30.10,NNE,31,2.0,2.0,86,0.00,,,0.03,Wunderground v.1.15,2013-03-24 04:03:00,
2013-03-23 23:13:00,28.5,25.1,30.09,North,11,2.0,2.0,87,0.00,,,0.03,Wunderground v.1.15,2013-03-24 04:13:00,
2013-03-23 23:23:00,28.6,25.2,30.09,North,11,3.0,3.0,87,0.00,,,0.03,Wunderground v.1.15,2013-03-24 04:23:00,
2013-03-23 23:33:00,28.7,25.3,30.09,NNE,22,4.0,4.0,87,0.00,,,0.03,Wunderground v.1.15,2013-03-24 04:33:00,
2013-03-23 23:43:00,28.7,25.0,30.10,North,355,3.0,6.0,86,0.00,,,0.03,Wunderground v.1.15,2013-03-24 04:43:00,
2013-03-23 23:53:00,28.7,24.8,30.10,NE,44,4.0,4.0,85,0.00,,,0.03,Wunderground v.1.15,2013-03-24 04:53:00,